ECHOSTAR 10

Last updated on Wed Sep 17 2025 00:02:46 GMT+0000 (Coordinated Universal Time)

1 28935U 06003A 25259.56189192 -.00000075 00000+0 00000+0 0 9991 2 28935 0.0390 332.4094 0001836 164.7355 310.6988 1.00270942 71711
UTC large
Height (km)
Speed (km/s)
/
Latitude / Longitude
Inclination (degrees)
Orbital Period (minutes)
Azimuth
Elevation
Range (km)
Doppler Factor

Next 0 passes for location: London (51.5072 / 0.1276)

Sorry there are no passes over London.